Norman Wells, Northwest Territories

10:28 AM MST on February 08, 2016 (GMT -0700)
Norman Wells

Weather History for CYVQ - October, 2012

Change the Weather History Date:

Wednesday, October 17, 2012

  Actual Average Record
Temperature  
Mean Temperature 32 °F -  
Max Temperature 34 °F 14 °F 48 °F (2013)
Min Temperature 30 °F 2 °F 6 °F (1999)
Degree Days  
Heating Degree Days 33    
Moisture  
Dew Point 29 °F    
Average Humidity 90    
Maximum Humidity 100    
Minimum Humidity 62    
Precipitation  
Precipitation 0.12 in 0.03 in - ()
Sea Level Pressure  
Sea Level Pressure 29.77 in    
Wind  
Wind Speed 6 mph ()    
Max Wind Speed 15 mph    
Max Gust Speed 28 mph    
Visibility 4.1 miles    
Events Rain , Snow    
Averages and records for this station are not official NWS values.
T = Trace of Precipitation, MM = Missing Value Source: Averaged Metar Reports

Daily Weather History Graph

Daily Weather History Graph

Search for Another Location

Airport or City:

Trip Planner

Search our weather history database for the weather conditions in past years. The results will help you decide how hot, cold, wet, or windy it might be!

Date:

Astronomy

Oct. 17, 2012 Rise Set
Actual Time 9:29 AM MDT 6:53 PM MDT
Civil Twilight 8:38 AM MDT 7:45 PM MDT
Nautical Twilight 7:40 AM MDT 8:42 PM MDT
Astronomical Twilight 6:41 AM MDT 9:40 PM MDT
Moon 1:40 PM MDT (10/17) 7:02 PM MDT (10/17)
Length of Visible Light 11h 07m
Length of Day
9h 24m
Waxing Crescent, 7% of the Moon is Illuminated
Oct 17
Waxing Crescent
Oct 21
First Quarter
Oct 29
Full
Nov 6
Last Quarter
Nov 13
New

Hourly Weather History & Observations

Time (MDT) Temp. Windchill Dew Point Humidity Pressure Visibility Wind Dir Wind Speed Gust Speed Precip Events Conditions
12:00 AM 36 °F - 28 °F 62% 29.60 in 28 mi East 11.5 mph - -   Scattered Clouds
2:00 AM 35.6 °F 26.2 °F 26.6 °F 70% 29.63 in 30.0 mi ESE 15.0 mph 20.7 mph N/A   Scattered Clouds
3:00 AM 35.6 °F 27.1 °F 26.6 °F 70% 29.65 in 30.0 mi ESE 12.7 mph 27.6 mph N/A   Scattered Clouds
4:00 AM 35.6 °F 26.2 °F 26.6 °F 70% 29.67 in 30.0 mi ESE 15.0 mph 24.2 mph N/A   Scattered Clouds
5:00 AM 33.8 °F 24.3 °F 26.6 °F 75% 29.69 in 20.0 mi ESE 13.8 mph - N/A Snow Light Snow Showers
6:00 AM 34 °F - 28 °F 69% 29.70 in 15 mi ESE 12.7 mph - - Rain Heavy Rain Showers
6:00 AM 33.8 °F 23.9 °F 28.4 °F 81% 29.70 in 15.0 mi ESE 15.0 mph 21.9 mph N/A Snow Light Snow Showers
7:00 AM 32.0 °F 24.2 °F 28.4 °F 87% 29.72 in 15.0 mi ESE 9.2 mph - N/A Snow Light Snow Showers
8:00 AM 32.0 °F 24.8 °F 28.4 °F 87% 29.73 in 6.0 mi ESE 8.1 mph - N/A Snow Light Snow Showers
9:00 AM 30.2 °F 25.4 °F 30.2 °F 100% 29.74 in 3.0 mi ESE 4.6 mph - N/A Snow Light Snow Showers
9:37 AM 30.2 °F 24.3 °F 30.2 °F 100% 29.75 in 1.5 mi SE 5.8 mph - N/A Snow Light Snow Showers
10:00 AM 30.2 °F 25.4 °F 30.2 °F 100% 29.76 in 1.0 mi ESE 4.6 mph - N/A Snow Light Snow Showers
11:00 AM 30.2 °F 25.4 °F 30.2 °F 100% 29.77 in 1.0 mi ESE 4.6 mph - N/A Snow Light Snow Showers
11:28 AM 30.2 °F 23.4 °F 28.4 °F 93% 29.78 in 1.5 mi ESE 6.9 mph - N/A Snow Light Snow Showers
11:49 AM 30.2 °F 25.4 °F 28.4 °F 93% 29.78 in 3.0 mi SE 4.6 mph - N/A Snow Light Snow Showers
12:00 PM 31 °F - 29 °F 91% 29.78 in 2 mi ESE 3.5 mph - - Snow Light Snow Showers
12:00 PM 30.2 °F 26.7 °F 30.2 °F 100% 29.78 in 2.0 mi ESE 3.5 mph - N/A Snow Light Snow Showers
12:32 PM 30.2 °F 26.7 °F 30.2 °F 100% 29.79 in 1.2 mi SE 3.5 mph - N/A Snow Light Snow Showers
1:00 PM 30.2 °F - 30.2 °F 100% 29.79 in 1.5 mi ESE 2.3 mph - N/A Snow Light Snow Showers
3:00 PM 32.0 °F 28.7 °F 30.2 °F 93% 29.81 in 1.5 mi ESE 3.5 mph - N/A Snow Light Snow Showers
3:36 PM 32.0 °F 28.7 °F 30.2 °F 93% 29.82 in 1.0 mi ESE 3.5 mph - N/A Snow Light Snow Showers
4:00 PM 32.0 °F - 30.2 °F 93% 29.83 in 1.0 mi SE 2.3 mph - N/A Snow Light Snow Showers
4:20 PM 32.0 °F - 30.2 °F 93% 29.83 in 5.0 mi Calm Calm - N/A Snow Light Snow Showers
4:50 PM 32.0 °F - 30.2 °F 93% 29.83 in 2.0 mi Calm Calm - N/A Snow Light Snow Showers
5:00 PM 32.0 °F - 30.2 °F 93% 29.83 in 1.0 mi Calm Calm - N/A Snow Light Snow Showers
5:34 PM 32.0 °F - 30.2 °F 93% 29.84 in 0.8 mi Calm Calm - N/A Snow Light Snow Showers
5:46 PM 32.0 °F - 30.2 °F 93% 29.84 in 3.0 mi Calm Calm - N/A Snow Light Snow Showers
6:00 PM 31 °F - 31 °F 99% 29.84 in 3 mi Calm Calm - - Snow Light Snow Showers
6:00 PM 32.0 °F - 30.2 °F 93% 29.84 in 3.0 mi Calm Calm - N/A Snow Light Snow Showers
6:18 PM 32.0 °F - 30.2 °F 93% 29.84 in 1.5 mi Calm Calm - N/A Snow Light Snow Showers
7:00 PM 32.0 °F - 30.2 °F 93% 29.84 in 1.5 mi Calm Calm - N/A Snow Light Snow Showers
8:00 PM 32.0 °F - 30.2 °F 93% 29.84 in 3.0 mi Calm Calm - N/A Snow Light Snow Showers
9:00 PM 30.2 °F - 30.2 °F 100% 29.83 in 3.0 mi Calm Calm - N/A Snow Light Snow Showers
10:00 PM 30.2 °F - 30.2 °F 100% 29.82 in 3.0 mi Calm Calm - N/A Snow Light Snow Showers
11:00 PM 30.2 °F - 30.2 °F 100% 29.82 in 4.0 mi Calm Calm - N/A Snow Light Snow